Theta_e
321 322 322 323 323 323 324 324 325 325 326 327 326 325 325 325 324 315 303 312 315 328 323 307 303 302 303 300 298 293 288 286 288 289 291 294 293 295 295 296 294 296 296 297 307
321 321 321 322 322 323 323 324 324 325 324 324 325 325 325 324 314 306 320 327 327 325 305 302 299 300 298 298 297 292 287 290 293 291 292 294 293 296 294 293 291 293 295 301 304
320 320 321 321 321 322 322 323 323 323 321 321 325 325 324 319 304 303 326 327 326 319 308 305 302 298 295 295 294 290 289 292 294 296 296 294 293 294 294 291 295 295 297 300 300
321 320 320 320 320 321 322 322 323 321 321 321 324 324 323 312 291 308 325 325 326 313 306 302 298 294 293 292 295 292 292 293 297 297 295 294 295 293 294 295 296 297 299 298 300
321 320 320 320 320 321 321 322 322 322 322 323 325 323 312 300 302 312 322 320 311 306 302 299 296 294 291 293 294 290 292 295 297 296 295 297 294 294 295 295 295 296 297 297 298
320 319 320 320 320 320 321 321 322 322 322 323 325 322 307 294 311 311 310 309 306 303 300 300 297 297 295 293 292 294 295 294 296 295 295 295 293 293 295 293 293 296 295 295 296
319 318 318 320 320 320 320 321 321 321 322 323 325 315 302 300 310 307 307 305 305 304 301 301 301 297 296 293 296 294 290 292 292 295 294 295 292 293 294 294 294 294 293 294 295
320 319 318 318 319 319 320 320 320 321 321 323 324 307 297 309 310 307 305 303 305 305 304 303 302 300 297 296 294 290 289 287 291 294 293 292 287 294 294 293 293 292 292 293 294
319 318 318 318 318 319 319 320 319 320 322 323 308 303 295 312 308 309 304 302 303 302 303 306 301 295 294 290 287 287 284 285 290 294 292 291 288 292 292 292 292 291 291 292 292
319 318 318 318 317 317 319 320 319 319 317 315 310 294 299 299 305 306 304 304 301 299 298 298 294 291 288 288 283 285 284 285 286 291 290 288 289 292 292 292 293 291 291 291 292
320 319 318 318 318 318 315 308 298 296 304 294 295 293 299 302 305 303 304 302 300 297 291 293 289 287 290 290 289 288 286 286 288 292 290 289 289 293 293 291 291 291 291 292 293
320 320 319 318 318 319 312 302 298 302 294 303 303 303 303 303 298 301 304 298 295 291 292 290 287 292 292 291 289 287 286 286 289 291 290 289 289 292 291 292 294 294 294 293 293
318 320 319 318 318 315 309 306 310 307 293 296 303 302 302 302 298 299 301 297 293 291 291 289 292 294 293 290 289 288 286 286 288 289 288 287 286 289 293 292 293 294 297 297 295
317 318 319 318 311 311 306 312 313 306 285 288 295 301 300 301 296 302 302 298 293 292 291 291 294 293 291 290 291 286 291 290 288 286 283 286 281 286 290 292 292 295 295 296 294
313 315 319 317 311 308 310 315 313 300 282 292 296 303 299 297 295 296 299 297 292 292 292 290 291 291 290 291 293 289 291 289 287 285 282 283 281 285 288 290 293 296 297 295 294
312 313 315 315 314 314 316 315 310 290 280 287 296 294 294 294 293 294 296 297 296 292 291 290 292 293 293 292 293 292 290 288 286 284 279 285 284 284 287 291 293 295 296 295 293
312 312 310 317 309 316 317 306 287 282 292 288 291 293 292 290 290 291 291 290 289 286 286 288 289 291 293 290 291 290 287 280 278 277 279 283 282 289 291 293 295 297 295 293 290
311 310 308 314 317 317 310 294 281 288 288 292 291 292 290 292 290 290 289 287 291 288 285 285 282 290 292 292 290 288 287 281 275 275 278 282 280 287 291 294 293 294 294 291 289
309 303 307 311 317 316 301 285 287 288 291 291 291 287 287 290 290 288 287 287 291 291 287 284 284 289 290 291 294 287 284 289 283 271 275 282 285 289 291 291 291 292 291 290 289
301 300 300 313 316 310 295 291 293 294 293 294 290 292 287 288 289 286 286 289 290 293 293 290 283 287 288 291 290 289 291 283 281 273 271 279 281 285 289 291 293 292 292 290 288
299 296 301 313 313 302 291 289 292 294 296 292 292 291 289 288 289 285 288 290 291 290 295 292 288 283 287 286 286 286 285 285 286 282 277 274 282 288 292 292 292 293 294 291 288
293 289 301 313 294 296 291 296 295 293 297 294 294 294 290 291 289 288 288 290 294 293 289 292 290 281 284 287 288 286 286 288 281 279 280 280 285 289 291 293 292 293 293 289 289
287 289 300 307 287 288 293 294 297 294 295 293 293 293 293 293 290 291 289 293 294 293 291 294 288 276 281 285 285 285 287 290 288 283 283 278 285 288 288 290 291 292 291 290 288
287 282 289 293 295 291 289 289 291 299 296 296 294 296 294 292 295 289 289 292 294 294 297 297 290 285 284 284 286 283 285 288 288 283 284 285 289 289 290 289 291 292 291 289 288
288 283 286 285 286 289 291 292 289 290 298 297 294 294 293 290 291 290 291 291 292 295 295 295 288 289 291 291 287 285 285 287 287 289 285 289 289 294 294 292 292 294 291 289 288
286 282 286 286 287 289 287 288 288 290 292 293 292 294 294 292 293 291 293 292 292 292 292 294 287 289 287 290 290 286 286 287 288 290 290 291 290 294 293 292 291 293 292 290 289
292 289 288 284 284 284 286 288 287 291 294 295 295 294 293 295 298 299 298 299 297 295 291 291 289 286 284 288 288 283 288 289 288 290 290 287 292 292 295 295 295 296 291 291 292
Wind_Speed
5 5 6 6 7 8 8 9 11 12 13 13 14 13 14 15 13 1 1 1 3 9 5 5 3 4 4 4 4 3 7 3 6 7 4 4 4 2 2 6 2 2 5 3 10
4 3 4 5 5 6 7 9 10 12 14 15 15 15 14 13 2 1 1 3 4 5 2 3 2 4 4 3 4 6 5 9 6 5 4 4 3 8 5 4 1 1 2 4 9
1 2 2 3 4 5 6 7 9 12 13 16 16 16 15 4 1 2 1 2 3 3 1 0 0 2 4 3 2 2 5 5 3 3 3 4 2 3 7 4 8 10 9 7 6
1 2 3 4 4 4 6 7 8 10 11 15 16 16 16 1 3 1 1 3 3 3 2 2 4 4 3 3 2 4 1 3 1 1 3 4 4 4 6 7 1 8 12 8 10
2 2 3 5 7 7 6 7 9 10 12 13 16 18 3 2 1 1 2 3 3 2 3 2 3 3 4 3 2 2 1 0 1 1 1 1 3 5 7 2 2 8 9 11 8
5 3 2 4 6 8 10 9 9 11 13 14 14 15 2 1 1 2 3 2 3 2 2 3 3 2 4 2 3 1 1 2 3 2 2 4 3 1 5 4 5 9 10 9 10
9 6 5 2 5 7 9 10 11 11 12 13 12 3 2 5 3 2 3 1 2 1 3 1 2 3 3 3 0 2 3 5 4 4 3 4 6 11 3 4 7 8 7 7 9
9 9 7 4 3 6 9 10 10 11 12 10 11 1 5 3 2 2 2 3 3 4 3 2 3 6 4 3 7 3 5 3 2 5 1 5 9 7 7 10 10 9 8 8 9
9 9 8 6 3 4 8 10 10 10 11 9 2 2 7 3 1 1 2 2 2 3 5 3 6 4 5 6 5 6 3 4 9 7 3 5 6 3 2 7 9 10 10 10 8
10 9 9 7 5 4 8 10 8 8 1 0 1 3 1 3 2 3 2 4 4 3 5 7 6 4 4 4 6 6 4 4 5 3 3 3 12 10 3 8 13 8 10 10 11
10 10 9 8 5 1 4 3 3 3 1 8 4 2 2 1 1 1 2 4 3 7 4 3 4 8 13 9 4 5 4 5 4 3 4 8 11 13 7 7 10 11 11 14 17
11 11 10 8 5 2 3 2 2 1 6 7 3 4 3 4 3 3 4 5 3 4 5 5 7 10 4 3 3 2 3 6 6 4 5 8 13 11 5 9 13 16 15 18 13
10 10 10 9 6 2 2 5 3 2 1 7 6 6 7 9 7 9 10 5 5 6 8 9 5 4 8 4 5 5 7 6 8 4 3 6 8 9 10 7 7 11 19 15 19
11 10 9 11 3 4 4 4 3 1 2 7 6 7 5 8 6 5 8 7 3 12 7 7 4 6 5 5 9 6 8 6 5 2 5 2 9 6 7 12 9 16 15 20 15
12 10 8 15 5 4 1 3 5 2 4 2 3 1 3 9 4 1 2 4 8 9 8 9 8 7 6 8 8 7 4 6 2 3 3 4 4 5 1 8 14 17 18 14 13
9 10 10 9 1 0 1 1 2 6 10 3 2 3 5 2 3 2 3 3 4 6 2 4 0 6 7 2 6 7 6 6 4 3 5 9 9 6 8 10 7 12 13 10 10
8 9 7 2 3 6 6 6 1 6 3 5 5 5 4 4 3 3 6 7 9 7 12 2 5 3 4 6 2 4 7 3 5 1 11 4 5 17 10 10 13 14 12 7 3
8 12 5 4 3 9 3 4 5 7 7 4 2 5 5 6 4 6 7 6 8 2 3 9 8 11 7 10 9 8 9 9 8 5 6 3 10 9 11 11 9 10 8 4 5
10 3 4 4 6 7 6 7 9 7 8 9 4 2 5 4 5 3 6 6 10 12 11 7 7 2 2 3 10 6 7 4 2 3 2 7 10 9 11 13 9 15 6 7 8
3 3 4 6 10 8 8 14 11 11 7 6 15 10 10 8 8 8 9 6 7 15 3 5 3 1 1 3 2 7 8 3 2 3 6 7 8 10 6 10 15 11 11 9 7
2 4 5 11 9 7 12 8 8 5 8 10 15 11 9 10 11 8 9 5 6 6 17 4 4 2 3 8 12 4 5 3 4 6 6 4 11 9 14 11 10 12 10 7 9
2 5 3 11 10 5 16 9 5 5 3 5 4 13 11 9 9 9 17 11 9 9 14 10 4 6 10 1 2 2 2 10 6 6 6 2 20 3 8 10 8 10 9 4 8
3 4 5 9 10 14 14 23 21 8 13 7 8 8 6 13 8 12 9 6 10 12 14 11 5 1 5 3 4 5 7 10 3 4 19 5 19 5 2 4 8 9 6 4 6
2 4 4 3 9 13 20 21 22 14 14 18 9 6 5 10 13 6 8 6 12 11 6 9 5 11 16 5 7 6 7 12 14 8 13 20 30 7 4 8 7 9 8 4 7
4 6 4 5 13 16 15 6 23 22 17 19 19 22 21 18 11 18 8 4 3 6 7 10 9 7 19 15 5 7 8 18 23 33 14 36 19 23 15 12 11 8 5 7 8
4 3 3 6 8 9 21 22 25 13 11 14 22 24 26 23 22 22 19 11 12 4 7 3 9 12 26 25 17 17 9 21 28 28 25 35 32 5 5 3 7 14 11 10 9
2 3 3 8 9 6 12 18 24 17 12 17 19 18 22 25 23 21 9 16 11 21 13 12 8 8 15 16 13 8 34 24 16 21 24 26 40 5 17 16 16 18 9 11 13
Wind_Direction
102 87 69 58 48 35 25 15 6 359 351 350 349 345 340 342 327 255 90 283 301 330 332 299 21 8 39 63 50 111 65 142 188 157 237 176 135 158 70 112 61 329 159 260 130
115 94 78 67 54 40 21 14 5 359 353 350 349 343 339 343 331 47 29 308 325 342 4 39 24 6 40 49 27 78 100 197 188 198 227 189 172 163 136 127 347 349 38 94 127
59 49 50 54 45 31 21 14 7 4 352 349 345 338 331 330 73 271 334 334 338 15 16 3 354 61 61 43 20 147 162 190 221 226 209 177 185 204 129 229 199 194 175 164 159
313 343 346 354 359 11 10 5 1 357 352 349 341 335 326 218 156 7 337 353 339 329 321 49 42 60 75 84 24 92 75 156 234 201 150 173 129 193 195 218 345 199 167 162 175
246 297 328 336 335 342 354 354 354 347 348 346 342 333 358 20 267 55 36 23 326 8 50 90 63 101 117 122 65 80 153 173 225 281 187 101 219 219 244 239 8 144 157 181 183
226 220 287 319 329 334 337 343 347 342 344 345 345 332 23 289 344 56 52 27 25 46 39 48 136 142 102 96 105 127 99 282 195 237 246 187 249 127 262 116 122 161 182 187 189
205 223 246 286 323 327 329 331 333 335 335 336 341 356 29 230 346 28 47 40 14 359 113 33 114 84 107 80 128 80 349 340 226 205 230 147 293 240 195 154 173 191 197 203 212
202 211 217 237 304 322 318 317 320 323 323 327 326 354 245 335 332 26 25 17 36 21 79 27 64 100 77 128 19 47 50 13 297 144 249 136 259 263 182 165 205 210 216 219 225
228 214 215 206 235 307 309 306 305 309 305 306 15 67 271 324 72 298 80 144 58 26 23 59 62 80 40 91 22 5 233 208 313 204 132 173 261 266 125 194 221 215 219 223 234
219 222 218 213 202 270 299 294 292 315 359 113 39 24 231 219 159 128 44 96 87 73 36 41 49 75 36 100 214 200 215 239 237 211 178 223 263 266 221 200 232 226 232 230 230
228 218 219 209 212 224 352 16 15 314 350 195 193 218 107 46 34 49 120 90 72 55 143 12 103 205 202 202 149 146 181 217 240 225 188 230 253 264 218 218 241 240 231 231 229
236 224 209 201 188 153 88 210 216 202 306 228 225 268 178 169 99 241 126 133 137 165 116 44 235 231 171 168 178 159 200 250 283 248 182 266 258 260 212 227 216 224 234 231 229
358 236 204 184 148 147 191 227 349 346 236 286 195 187 192 145 204 200 147 142 147 143 193 173 208 129 156 161 179 222 202 220 226 352 259 332 282 246 251 235 243 237 235 236 224
3 348 195 121 110 157 236 239 244 14 14 261 227 252 128 134 242 173 175 141 179 191 168 234 243 146 168 192 162 239 208 197 225 140 243 142 281 280 252 257 220 247 238 238 228
5 349 203 161 135 180 254 209 181 58 269 270 185 38 172 166 140 256 221 90 174 176 141 235 178 176 181 196 162 226 127 174 143 173 6 200 278 246 338 266 256 253 249 238 224
353 357 327 179 167 144 327 17 152 92 228 291 130 145 126 84 59 71 123 47 156 136 258 241 242 172 201 96 156 145 80 55 60 102 267 205 191 200 198 220 240 248 255 240 233
333 331 332 190 202 149 126 67 112 181 146 216 184 167 149 148 100 122 158 182 170 147 221 149 219 200 157 99 66 118 100 311 326 13 240 46 210 260 288 258 227 251 255 257 234
313 322 260 233 167 143 127 121 195 201 222 96 109 104 183 154 194 158 137 192 242 159 125 187 265 168 189 189 167 194 165 168 213 207 266 138 238 248 233 272 260 263 274 238 199
335 313 258 212 177 180 183 200 202 199 187 148 94 113 208 201 159 136 200 218 200 185 189 170 260 212 170 150 149 197 205 182 16 118 359 230 272 288 253 266 273 250 250 234 225
330 284 239 181 164 214 204 219 224 168 163 163 203 177 194 184 169 184 172 207 214 192 182 206 275 229 197 115 51 158 167 80 358 237 257 271 264 230 259 245 256 269 247 227 219
323 257 248 175 159 220 227 225 232 219 156 174 207 189 212 172 183 192 208 240 190 192 194 163 174 237 132 208 170 149 197 147 139 163 199 297 258 219 218 210 227 248 257 228 207
255 238 280 156 194 209 231 198 174 176 192 241 219 204 193 173 187 199 213 211 175 150 170 211 169 207 205 227 184 40 248 171 156 221 238 202 264 163 230 221 203 252 264 234 210
251 251 298 192 219 218 228 238 237 190 196 212 208 214 189 202 220 206 211 193 172 163 174 163 205 349 328 8 7 217 199 205 138 71 240 148 265 11 134 259 240 241 266 241 223
269 269 223 220 262 240 219 234 238 220 221 212 253 176 197 211 203 215 222 220 187 199 181 152 163 197 230 173 140 195 210 197 200 223 248 235 255 263 276 263 282 254 257 247 214
199 240 218 195 237 247 239 262 238 235 218 208 217 231 227 214 203 225 198 211 192 220 181 146 221 245 258 259 220 199 203 201 208 229 207 255 245 257 233 231 240 266 244 198 220
203 196 279 261 296 247 235 249 244 257 245 234 233 210 221 232 222 228 219 200 218 164 175 156 234 232 257 250 240 249 224 218 218 232 232 251 260 123 223 235 240 238 237 226 221
167 299 310 244 246 255 244 238 244 250 222 236 255 249 239 228 234 244 229 212 208 206 200 178 192 197 241 247 239 255 239 236 221 227 220 237 249 137 262 246 252 257 218 233 230